| time (UTC) | temp F | wind direction | speed MPH | gust MPH | rain 1hr in | rain 24hr in | rain mn in | humidity % | barometer mb |
| 20260831231548 | 89 | 122 | 2.0 | 7.0 | 0.00 | 0.24 | 0.24 | 73 | 1012.8 |
| 20260831230011 | 89 | 163 | 5.0 | 7.0 | 0.00 | 0.24 | 0.24 | 73 | 1012.7 |
| 20260831224556 | 89 | 150 | 2.0 | 5.0 | 0.00 | 0.24 | 0.24 | 72 | 1012.8 |
| 20260831223025 | 89 | 135 | 3.0 | 6.0 | 0.00 | 0.24 | 0.24 | 72 | 1012.8 |
| 20260831221612 | 89 | 145 | 2.0 | 7.0 | 0.00 | 0.24 | 0.24 | 72 | 1012.9 |
| 20260831220044 | 90 | 134 | 2.0 | 5.0 | 0.00 | 0.24 | 0.24 | 72 | 1013.0 |
| 20260831214512 | 89 | 183 | 2.0 | 6.0 | 0.00 | 0.24 | 0.24 | 73 | 1013.0 |
| 20260831213058 | 89 | 186 | 1.0 | 6.0 | 0.00 | 0.24 | 0.24 | 75 | 1013.3 |
| 20260831211523 | 87 | 189 | 0.0 | 4.0 | 0.00 | 0.24 | 0.24 | 75 | 1013.6 |
| 20260831210109 | 86 | 183 | 2.0 | 4.0 | 0.00 | 0.24 | 0.24 | 77 | 1013.8 |
| 20260831204530 | 85 | 179 | 0.0 | 0.0 | 0.00 | 0.24 | 0.24 | 83 | 1014.0 |
| 20260831203112 | 82 | 179 | 0.0 | 3.0 | 0.00 | 0.24 | 0.24 | 87 | 1014.0 |
| 20260831201548 | 81 | 184 | 0.0 | 3.0 | 0.13 | 0.24 | 0.24 | 88 | 1014.2 |
| 20260831200024 | 80 | 217 | 0.0 | 3.0 | 0.24 | 0.24 | 0.24 | 90 | 1014.4 |
| 20260831194632 | 79 | 227 | 1.0 | 5.0 | 0.24 | 0.24 | 0.24 | 90 | 1014.4 |
| 20260831193030 | 79 | 151 | 2.0 | 9.0 | 0.23 | 0.23 | 0.23 | 89 | 1015.0 |
| 20260831191606 | 80 | 111 | 10.0 | 16.0 | 0.11 | 0.11 | 0.11 | 88 | 1015.2 |
| 20260831190038 | 87 | 108 | 11.0 | 20.0 | 0.00 | 0.00 | 0.00 | 78 | 1015.1 |
| 20260831184504 | 92 | 89 | 3.0 | 7.0 | 0.00 | 0.00 | 0.00 | 65 | 1014.9 |
| 20260831183100 | 92 | 125 | 3.0 | 9.0 | 0.00 | 0.00 | 0.00 | 64 | 1015.1 |
| 20260831181524 | 92 | 187 | 2.0 | 4.0 | 0.00 | 0.00 | 0.00 | 64 | 1015.2 |
| 20260831180109 | 92 | 141 | 3.0 | 6.0 | 0.00 | 0.00 | 0.00 | 65 | 1015.4 |
| 20260831174542 | 91 | 44 | 0.0 | 7.0 | 0.00 | 0.00 | 0.00 | 67 | 1015.5 |
| 20260831173011 | 90 | 67 | 1.0 | 7.0 | 0.00 | 0.00 | 0.00 | 69 | 1015.6 |
| 20260831171559 | 90 | 62 | 2.0 | 4.0 | 0.00 | 0.00 | 0.00 | 67 | 1015.8 |
| 20260831170034 | 91 | 27 | 2.0 | 5.0 | 0.00 | 0.00 | 0.00 | 66 | 1015.7 |
| 20260831164507 | 91 | 119 | 3.0 | 10.0 | 0.00 | 0.00 | 0.00 | 67 | 1015.8 |
| 20260831163050 | 90 | 338 | 0.0 | 6.0 | 0.00 | 0.00 | 0.00 | 69 | 1015.9 |
| 20260831161512 | 90 | 186 | 2.0 | 7.0 | 0.00 | 0.00 | 0.00 | 68 | 1015.9 |
| 20260831160103 | 89 | 52 | 2.0 | 8.0 | 0.00 | 0.00 | 0.00 | 72 | 1016.0 |
| 20260831154522 | 89 | 311 | 2.0 | 4.0 | 0.00 | 0.00 | 0.00 | 71 | 1016.0 |
| 20260831153103 | 88 | 62 | 3.0 | 7.0 | 0.00 | 0.00 | 0.00 | 74 | 1016.1 |
| 20260831151533 | 88 | 347 | 2.0 | 6.0 | 0.00 | 0.00 | 0.00 | 73 | 1016.0 |
| 20260831150006 | 87 | 34 | 0.0 | 4.0 | 0.00 | 0.00 | 0.00 | 77 | 1015.9 |
| 20260831144540 | 86 | 23 | 2.0 | 6.0 | 0.00 | 0.00 | 0.00 | 79 | 1015.8 |
| 20260831143023 | 85 | 321 | 0.0 | 0.0 | 0.00 | 0.00 | 0.00 | 81 | 1015.7 |
| 20260831141610 | 85 | 207 | 0.0 | 0.0 | 0.00 | 0.00 | 0.00 | 81 | 1015.7 |
| 20260831140035 | 84 | 303 | 2.0 | 4.0 | 0.00 | 0.00 | 0.00 | 83 | 1015.7 |
| 20260831134609 | 84 | 291 | 0.0 | 0.0 | 0.00 | 0.00 | 0.00 | 84 | 1015.5 |
| 20260831133032 | 82 | 235 | 0.0 | 0.0 | 0.00 | 0.00 | 0.00 | 87 | 1015.4 |
| 20260831131624 | 81 | 234 | 0.0 | 1.0 | 0.00 | 0.00 | 0.00 | 88 | 1015.2 |
| 20260831130043 | 81 | 233 | 1.0 | 3.0 | 0.00 | 0.00 | 0.00 | 88 | 1015.0 |
| 20260831124514 | 81 | 231 | 1.0 | 3.0 | 0.00 | 0.00 | 0.00 | 88 | 1014.8 |
| 20260831123052 | 80 | 191 | 0.0 | 0.0 | 0.00 | 0.00 | 0.00 | 88 | 1014.7 |
| 20260831121523 | 80 | 190 | 0.0 | 1.0 | 0.00 | 0.00 | 0.00 | 88 | 1014.5 |
| 20260831120108 | 80 | 190 | 0.0 | 2.0 | 0.00 | 0.00 | 0.00 | 88 | 1014.3 |
| 20260831114540 | 80 | 190 | 0.0 | 2.0 | 0.00 | 0.00 | 0.00 | 88 | 1014.2 |
| 20260831113016 | 80 | 190 | 0.0 | 0.0 | 0.00 | 0.00 | 0.00 | 88 | 1014.2 |
| 20260831111549 | 80 | 190 | 0.0 | 0.0 | 0.00 | 0.00 | 0.00 | 88 | 1014.0 |
| 20260831110023 | 81 | 190 | 0.0 | 2.0 | 0.00 | 0.00 | 0.00 | 87 | 1014.1 |
| 20260831104604 | 81 | 190 | 0.0 | 2.0 | 0.00 | 0.00 | 0.00 | 87 | 1014.1 |
| 20260831103032 | 81 | 190 | 0.0 | 1.0 | 0.00 | 0.00 | 0.00 | 86 | 1014.1 |
| 20260831101505 | 81 | 188 | 1.0 | 3.0 | 0.00 | 0.00 | 0.00 | 86 | 1014.1 |
| 20260831100057 | 81 | 226 | 1.0 | 3.0 | 0.00 | 0.00 | 0.00 | 86 | 1014.3 |
| 20260831094524 | 81 | 228 | 0.0 | 3.0 | 0.00 | 0.00 | 0.00 | 86 | 1014.2 |
| 20260831093105 | 82 | 229 | 0.0 | 3.0 | 0.00 | 0.00 | 0.00 | 87 | 1014.1 |
| 20260831091542 | 82 | 219 | 1.0 | 4.0 | 0.00 | 0.00 | 0.00 | 87 | 1014.0 |
| 20260831090013 | 82 | 221 | 1.0 | 4.0 | 0.00 | 0.00 | 0.00 | 86 | 1014.0 |
| 20260831084555 | 82 | 207 | 1.0 | 5.0 | 0.00 | 0.00 | 0.00 | 86 | 1014.1 |
| 20260831083024 | 82 | 181 | 2.0 | 4.0 | 0.00 | 0.00 | 0.00 | 86 | 1014.2 |
| 20260831081609 | 82 | 196 | 2.0 | 4.0 | 0.00 | 0.00 | 0.00 | 86 | 1014.2 |
| 20260831080051 | 82 | 195 | 2.0 | 5.0 | 0.00 | 0.00 | 0.00 | 85 | 1014.4 |
| 20260831074512 | 83 | 193 | 2.0 | 6.0 | 0.00 | 0.00 | 0.00 | 85 | 1014.2 |
| 20260831073101 | 83 | 211 | 3.0 | 7.0 | 0.00 | 0.00 | 0.00 | 84 | 1014.3 |
| 20260831071523 | 83 | 173 | 3.0 | 7.0 | 0.00 | 0.00 | 0.00 | 84 | 1014.3 |
| 20260831070110 | 83 | 220 | 3.0 | 7.0 | 0.00 | 0.00 | 0.00 | 83 | 1014.3 |
| 20260831064532 | 83 | 198 | 1.0 | 5.0 | 0.00 | 0.00 | 0.00 | 83 | 1014.5 |
| 20260831063003 | 83 | 185 | 3.0 | 6.0 | 0.00 | 0.00 | 0.00 | 83 | 1014.5 |
| 20260831061556 | 83 | 198 | 3.0 | 9.0 | 0.00 | 0.00 | 0.00 | 82 | 1014.6 |
| 20260831060019 | 83 | 189 | 1.0 | 7.0 | 0.00 | 0.00 | 0.00 | 83 | 1014.5 |
| 20260831053031 | 83 | 172 | 3.0 | 8.0 | 0.00 | 0.00 | 0.00 | 83 | 1014.6 |
| 20260831051624 | 84 | 195 | 2.0 | 8.0 | 0.00 | 0.00 | 0.00 | 82 | 1014.5 |
| 20260831050043 | 84 | 181 | 4.0 | 8.0 | 0.00 | 0.00 | 0.00 | 82 | 1014.4 |
| 20260831044522 | 84 | 190 | 2.0 | 7.0 | 0.00 | 0.00 | 0.00 | 81 | 1014.3 |
| 20260831043108 | 84 | 162 | 0.0 | 8.0 | 0.00 | 0.00 | 0.00 | 81 | 1014.3 |
| 20260831041545 | 84 | 179 | 2.0 | 9.0 | 0.00 | 0.00 | 0.00 | 81 | 1014.1 |
| 20260831040014 | 84 | 152 | 5.0 | 12.0 | 0.00 | 0.00 | 0.00 | 80 | 1014.2 |
| 20260831034601 | 85 | 143 | 5.0 | 9.0 | 0.00 | 0.00 | 0.00 | 80 | 1014.1 |
| 20260831033034 | 85 | 184 | 2.0 | 8.0 | 0.00 | 0.00 | 0.00 | 80 | 1014.0 |
| 20260831031609 | 85 | 193 | 2.0 | 5.0 | 0.00 | 0.00 | 0.00 | 79 | 1013.9 |
| 20260831030047 | 85 | 197 | 5.0 | 9.0 | 0.00 | 0.00 | 0.00 | 78 | 1013.6 |
| 20260831024512 | 86 | 179 | 3.0 | 7.0 | 0.00 | 0.00 | 0.00 | 77 | 1013.4 |
| 20260831023054 | 86 | 159 | 7.0 | 13.0 | 0.00 | 0.00 | 0.00 | 76 | 1013.3 |
| 20260831021528 | 86 | 165 | 7.0 | 12.0 | 0.00 | 0.00 | 0.00 | 76 | 1013.2 |
| 20260831020110 | 87 | 173 | 4.0 | 11.0 | 0.00 | 0.00 | 0.00 | 75 | 1012.9 |
| 20260831014545 | 87 | 200 | 4.0 | 11.0 | 0.00 | 0.00 | 0.00 | 73 | 1012.8 |
| 20260831013015 | 88 | 167 | 6.0 | 13.0 | 0.00 | 0.00 | 0.00 | 71 | 1012.7 |
| 20260831011556 | 89 | 156 | 5.0 | 13.0 | 0.00 | 0.00 | 0.00 | 69 | 1012.7 |
| 20260831010030 | 89 | 156 | 6.0 | 11.0 | 0.00 | 0.00 | 0.00 | 66 | 1012.6 |
| 20260831004613 | 90 | 139 | 7.0 | 16.0 | 0.00 | 0.00 | 0.00 | 65 | 1012.6 |
| 20260831003046 | 91 | 182 | 6.0 | 17.0 | 0.00 | 0.00 | 0.00 | 63 | 1012.5 |
| 20260831001517 | 92 | 162 | 7.0 | 12.0 | 0.00 | 0.00 | 0.00 | 60 | 1012.4 |
| 20260831000100 | 92 | 163 | 7.0 | 17.0 | 0.00 | 0.00 | 0.00 | 59 | 1012.4 |
| 20260830234527 | 93 | 166 | 9.0 | 17.0 | 0.00 | 0.00 | 0.00 | 58 | 1012.3 |
| 20260830233108 | 94 | 148 | 7.0 | 15.0 | 0.00 | 0.00 | 0.00 | 57 | 1012.1 |